Powrót do katalogu

DELTA 1 DEB

AktywnyLEO
NORAD 7180·DEBRIS·🇺🇸 United States

Wystrzelony Nov 6, 1973 z Vandenberg Space Force Base

Loading…

Następne Przeloty (najbliższe 24 godziny)

TLE

ŚwieżeSource: Space-Track

Epoka: Sep 13, 2026, 21:22 UTC

1 07180U 73086ER  26256.89075171  .00000891  00000-0  39877-2 0  9993
2 07180 102.2393   9.3640 0146046 329.1055 150.3970 12.79512724452035

Śledź DELTA 1 DEB w czasie rzeczywistym z AllMySat

Download on the App Store